Date,TemperatureHighF,TemperatureAvgF,TemperatureLowF,DewpointHighF,DewpointAvgF,DewpointLowF,HumidityHigh,HumidityAvg,HumidityLow,PressureMaxIn,PressureMinIn,WindSpeedMaxMPH,WindSpeedAvgMPH,GustSpeedMaxMPH,PrecipitationSumIn
2012-3-30,50,46,45,44,39,34,92,75,58,29.76,29.58,9,3,9,0.00
2012-3-31,54,48,46,48,46,44,99,91,79,29.69,29.50,18,8,18,0.00
2012-4-1,64,51,44,50,45,42,98,81,52,29.77,29.21,14,4,14,0.02
2012-4-2,63,52,42,51,38,27,99,63,28,29.66,29.21,32,9,32,0.06
2012-4-3,74,54,36,44,31,20,88,47,14,29.83,29.36,11,3,11,0.00
2012-4-4,81,63,47,54,45,28,95,55,22,29.44,29.07,21,4,21,0.00
2012-4-5,68,55,43,42,32,25,66,43,23,29.54,29.22,21,6,21,0.00
2012-4-6,63,54,41,37,30,23,64,40,27,29.90,29.59,24,10,24,0.00
2012-4-7,72,55,40,35,25,19,61,33,14,29.95,29.66,23,6,23,0.00
2012-4-8,78,59,40,40,31,22,82,39,15,29.75,29.38,19,5,19,0.00
2012-4-9,71,58,45,38,32,24,68,39,19,29.71,29.40,22,8,23,0.00
2012-4-10,72,56,41,41,33,20,88,48,15,29.56,29.35,17,5,18,0.00
2012-4-11,60,47,39,41,33,28,81,59,32,29.73,29.52,16,5,16,0.00
2012-4-12,64,54,41,42,35,26,80,51,26,29.92,29.72,14,4,14,0.00
2012-4-13,71,58,44,38,34,25,72,43,18,30.01,29.80,14,5,14,0.00
2012-4-14,65,64,63,49,47,45,60,55,48,29.64,29.58,9,5,9,0.00
2012-4-15,92,70,54,59,56,48,99,65,29,29.62,29.22,14,3,14,0.00
2012-4-16,94,76,59,66,61,57,97,61,33,29.44,28.98,14,4,14,0.00
2012-4-17,78,70,56,60,49,34,77,48,24,29.56,29.07,12,4,12,0.00
2012-4-18,61,55,50,50,45,37,99,70,45,29.92,29.52,17,4,17,0.06
2012-4-19,75,58,45,57,50,43,99,76,36,30.01,29.71,10,2,10,0.01
2012-4-20,77,61,45,58,53,44,99,78,45,29.89,29.45,14,3,14,0.00
2012-4-21,82,67,56,64,59,54,99,77,48,29.55,29.12,19,5,19,0.00
2012-4-22,58,51,46,55,49,45,99,94,82,29.86,29.33,24,11,24,1.30
2012-4-23,52,45,41,45,41,37,99,86,63,30.15,29.80,17,6,18,0.06
2012-4-24,69,53,37,40,31,20,99,50,19,30.12,29.91,14,4,14,0.00
2012-4-25,76,57,39,44,34,20,99,51,14,30.25,30.06,17,3,17,0.00
2012-4-26,64,57,46,61,54,36,99,89,69,30.14,29.85,11,3,11,0.11
2012-4-27,69,57,48,60,36,26,99,47,23,30.63,30.05,19,6,19,0.00
2012-4-28,62,49,42,46,36,26,97,62,32,30.83,30.63,11,3,11,0.08
2012-4-29,74,56,42,49,43,30,99,68,20,30.81,30.46,10,2,10,0.05
2012-4-30,68,57,48,54,41,24,99,57,32,30.81,30.55,17,5,17,0.00
2012-5-1,89,70,58,68,61,50,99,76,36,30.56,30.14,14,2,14,0.06
2012-5-2,64,60,55,61,58,54,99,92,81,30.44,30.15,14,5,14,0.00
2012-5-3,79,64,53,65,58,52,99,85,57,30.54,30.18,11,3,13,0.00
2012-5-4,88,68,59,74,64,59,99,89,60,30.28,30.00,9,3,9,0.02
2012-5-5,80,69,61,68,64,60,99,86,63,30.23,30.01,21,4,21,0.00
2012-5-6,73,63,56,61,58,55,99,86,62,30.45,30.22,11,5,11,0.00
2012-5-7,70,61,50,58,52,45,99,74,45,30.58,30.39,14,4,14,0.00
2012-5-8,74,66,60,64,59,49,89,78,62,30.50,30.09,19,6,19,0.01
2012-5-9,83,68,58,68,62,57,99,84,45,30.11,29.83,14,3,14,0.27
2012-5-10,76,62,49,58,47,37,99,63,27,30.32,29.84,18,5,18,0.02
2012-5-11,81,63,43,45,40,31,92,48,19,30.70,30.30,16,4,17,0.00
2012-5-12,87,69,47,52,46,38,89,50,21,30.68,30.33,11,3,11,0.00
2012-5-13,88,71,55,63,57,51,91,65,37,30.51,29.91,14,3,14,0.00
2012-5-14,73,66,62,66,62,59,99,87,69,30.04,29.88,12,4,12,0.08
2012-5-15,83,71,64,72,66,63,99,86,62,29.92,29.73,10,4,11,0.38
2012-5-16,88,73,61,67,64,61,99,76,44,29.88,29.70,10,3,10,0.00
2012-5-17,78,67,54,65,52,43,98,61,32,30.03,29.71,20,6,20,0.00
2012-5-18,80,65,49,59,51,43,99,64,33,30.23,29.96,13,3,13,0.00
2012-5-19,86,69,54,62,48,42,81,51,28,30.25,29.59,9,2,10,0.00
2012-5-20,80,69,55,68,56,43,99,66,34,29.91,29.62,21,6,21,0.01
2012-5-21,77,67,63,74,65,62,99,96,80,29.73,29.51,18,6,21,0.37
2012-5-22,82,69,62,67,65,62,99,87,57,29.59,29.44,8,3,8,0.00
2012-5-23,86,71,61,71,67,61,99,86,60,29.61,29.41,15,3,15,0.00
2012-5-24,86,74,66,71,67,63,99,81,49,29.84,29.55,13,4,13,0.00
2012-5-25,90,76,69,73,70,67,99,81,51,29.88,29.62,11,4,13,0.00
2012-5-26,90,78,64,74,69,64,99,77,52,29.88,29.53,12,4,12,0.00
2012-5-27,91,78,66,75,69,66,99,77,53,29.84,29.59,13,3,13,0.00
2012-5-28,100,81,64,77,70,63,99,73,38,29.74,29.52,11,3,11,0.00
2012-5-29,98,82,68,73,71,67,99,71,41,29.61,29.38,17,4,17,0.17
2012-5-30,88,76,68,72,68,63,99,78,47,29.49,29.30,7,2,7,0.01
2012-6-2,59,58,57,53,53,52,85,82,80,29.92,29.90,2,1,2,0.65
2012-6-3,86,75,56,60,54,48,87,51,32,30.03,29.81,27,5,27,0.00
2012-6-4,80,68,58,61,56,51,99,68,38,29.85,29.72,17,5,17,0.01
2012-6-5,77,66,57,56,52,45,89,63,42,30.11,29.84,15,4,15,0.08
2012-6-6,79,67,52,56,53,46,99,66,34,30.24,30.02,11,2,11,0.00
2012-6-7,86,70,55,61,57,53,99,68,37,30.17,29.86,12,3,18,0.00
2012-6-8,91,72,54,62,56,47,99,62,23,30.13,29.93,11,2,11,0.00
2012-6-9,100,80,59,61,57,50,93,51,21,30.13,29.94,11,3,11,0.00
2012-6-10,98,82,64,66,62,60,91,55,30,30.14,29.98,12,3,12,0.00
2012-6-11,95,80,64,74,66,58,99,66,37,30.31,30.08,13,4,13,0.00
2012-6-12,76,72,68,72,70,64,99,93,67,30.11,29.86,12,4,12,0.51
2012-6-13,84,74,70,71,62,52,98,70,38,30.08,29.85,20,9,20,0.00
2012-6-14,85,74,66,66,62,58,90,68,47,30.36,30.06,17,6,17,0.00
2012-6-15,86,72,61,65,59,53,96,66,41,30.44,30.05,13,4,13,0.00
2012-6-16,86,72,58,64,57,52,97,62,36,30.57,30.08,13,3,13,0.00
2012-6-17,81,67,56,61,58,54,99,76,47,30.35,30.06,13,3,13,0.00
2012-6-18,76,66,56,64,60,56,99,84,65,30.25,30.14,10,2,10,0.01
2012-6-19,90,74,65,73,69,64,99,83,56,30.24,30.08,12,3,12,0.00
2012-6-20,103,86,69,76,72,68,99,68,38,30.27,30.04,11,2,11,0.00
2012-6-21,103,87,73,76,72,68,94,64,36,30.13,29.88,10,2,10,0.00
2012-6-22,101,84,70,78,73,68,98,73,36,30.01,29.84,14,2,14,0.09
2012-6-23,95,81,69,73,65,56,99,62,31,30.08,29.90,9,3,9,0.04
2012-6-24,92,79,63,70,64,58,98,64,35,30.11,29.92,13,3,13,0.00
2012-6-25,94,80,69,73,63,46,93,60,22,29.93,29.73,23,6,23,0.00
2012-6-26,88,74,60,57,51,47,68,46,25,30.04,29.70,21,5,21,0.00
2012-6-27,95,78,58,61,55,50,83,49,24,30.04,29.70,17,4,17,0.00
2012-6-28,103,83,64,64,60,44,88,50,15,29.90,29.35,11,3,11,0.00
2012-6-29,105,89,70,78,71,63,98,58,38,29.81,29.49,33,3,33,0.34
2012-6-30,102,83,68,76,70,62,99,70,31,29.89,29.72,11,2,17,0.11
2012-7-1,105,88,72,77,72,66,99,64,34,29.95,29.81,14,3,14,0.00
2012-7-2,95,83,71,73,68,61,97,64,37,30.12,29.90,17,4,17,0.07
2012-7-3,99,83,66,75,68,63,97,65,32,30.09,29.91,9,2,9,0.00
2012-7-4,104,87,73,76,71,65,88,61,37,30.04,29.82,11,3,14,0.00
2012-7-5,108,90,77,80,73,66,83,60,33,29.91,29.73,14,3,14,0.00
2012-7-6,101,88,78,75,70,62,86,57,35,30.02,29.81,12,3,12,0.00
2012-7-7,113,94,76,78,69,11,90,50,11,29.90,29.70,10,3,10,0.00
2012-7-8,97,88,81,79,75,69,87,67,52,29.91,29.76,11,4,11,0.00
2012-7-13,88,81,76,69,66,62,80,61,44,29.92,29.87,5,1,5,0.39
2012-7-14,88,78,70,77,71,62,99,79,62,29.94,29.81,13,4,13,0.06
2012-7-15,98,82,73,78,76,72,99,84,48,29.93,29.75,10,2,10,0.05
2012-7-16,103,87,73,76,74,70,99,68,40,29.79,29.56,14,3,14,0.00
2012-7-17,106,90,72,76,71,59,99,59,23,29.70,29.54,10,3,10,0.00
2012-7-18,106,86,75,78,74,69,99,71,36,29.69,29.43,20,3,20,0.01
2012-7-19,95,82,72,79,75,72,99,79,52,29.77,29.57,41,4,41,0.66
2012-7-20,79,72,68,76,71,66,99,96,91,29.68,29.51,20,6,20,0.63
2012-7-21,68,67,65,68,66,64,99,98,92,29.86,29.64,17,6,18,0.64
2012-7-22,86,72,66,72,69,66,99,92,59,29.90,29.72,4,1,4,0.01
2012-7-23,96,82,69,78,74,68,99,79,45,29.75,29.51,10,2,10,0.00
2012-7-24,95,84,73,77,74,71,97,74,55,29.52,29.32,17,5,17,0.00
2012-7-25,94,81,70,73,62,55,85,56,31,29.63,29.37,14,5,14,0.00
2012-7-26,100,84,70,81,74,64,99,74,49,29.47,29.20,24,4,24,0.20
2012-7-27,101,85,70,78,73,70,99,72,42,29.49,29.35,8,2,9,0.01
2012-7-28,102,84,73,77,73,66,99,73,35,29.52,29.39,9,2,9,0.00
2012-7-29,90,79,72,74,71,68,97,77,52,29.66,29.47,11,4,11,0.00
2012-7-30,91,77,70,77,71,67,99,84,48,29.78,29.60,14,3,14,0.56
2012-7-31,90,78,69,76,72,69,99,84,55,29.67,29.48,11,4,11,0.01
2012-8-1,89,78,70,75,72,69,98,84,56,29.58,29.39,12,2,12,0.00
2012-8-2,96,82,68,79,73,68,99,78,45,29.57,29.42,11,2,11,0.00
2012-8-3,96,84,72,78,74,70,97,74,48,29.67,29.50,13,3,13,0.00
2012-8-4,95,86,77,79,76,70,99,75,46,29.80,29.65,15,5,15,0.00
2012-8-5,99,84,74,78,75,24,99,78,15,29.75,29.55,21,5,21,0.18
2012-8-6,94,81,73,79,74,24,99,80,47,29.74,29.61,8,2,9,0.00
2012-8-7,89,79,71,76,73,16,99,83,12,29.73,29.44,10,3,10,0.00
2012-8-8,95,81,71,80,71,64,99,76,44,29.68,29.54,11,2,11,0.00
2012-8-9,97,83,70,78,73,69,99,74,46,29.61,29.43,17,3,17,0.00
2012-8-10,92,79,70,77,74,70,99,83,52,29.51,29.36,11,3,11,0.39
2012-8-11,94,79,69,76,72,68,99,81,47,29.59,29.38,17,4,17,0.25
2012-8-12,94,79,69,71,65,59,98,66,35,29.70,29.55,10,3,10,0.00
2012-8-13,93,78,63,72,66,61,99,70,37,29.77,29.58,11,2,11,0.00
2012-8-14,88,79,72,76,72,68,99,82,53,29.59,29.47,13,3,13,0.06
2012-8-15,95,79,68,74,71,68,99,78,45,29.59,29.47,12,2,12,0.01
2012-8-16,97,80,68,70,65,58,94,64,29,29.73,29.51,11,3,11,0.00
2012-8-17,96,80,67,74,68,63,99,71,34,29.62,29.47,14,4,14,0.22
2012-8-18,87,76,67,71,66,57,99,74,37,29.63,29.51,16,5,16,0.11
2012-8-19,78,70,63,71,66,61,99,88,66,29.67,29.57,8,2,8,0.08
2012-8-20,86,72,64,69,65,16,99,82,46,29.63,29.39,21,2,21,0.09
2012-8-21,85,73,62,68,64,61,99,77,48,29.78,29.57,10,2,10,0.01
2012-8-22,90,75,62,73,64,58,99,72,34,29.89,29.73,11,2,11,0.00
2012-8-23,93,78,64,74,66,57,99,72,32,29.91,29.75,11,2,11,0.00
2012-8-24,92,75,65,72,67,58,99,80,35,29.90,29.76,9,2,9,0.00
2012-8-25,82,74,70,72,68,63,96,84,55,29.91,29.81,19,6,19,0.06
2012-8-26,84,72,68,76,71,68,99,97,72,29.95,29.83,17,4,17,0.64
2012-8-27,99,79,68,78,71,66,99,79,39,29.88,29.58,10,3,10,0.02
2012-8-28,98,80,68,76,71,63,99,77,37,29.66,29.52,11,3,11,0.02
2012-8-29,89,75,65,69,65,61,99,72,44,29.75,29.54,10,3,10,0.00
2012-8-30,90,82,70,73,69,64,98,68,46,29.86,29.72,10,3,10,0.00
2012-8-31,101,82,70,74,68,58,98,69,26,29.80,29.61,11,3,11,0.00
2012-9-1,99,80,72,79,73,69,99,83,46,29.74,29.60,16,2,16,0.17
2012-9-2,83,77,73,79,75,73,99,95,77,29.78,29.68,10,2,10,0.11
2012-9-3,76,76,76,75,75,75,97,97,97,29.80,29.69,2,2,2,0.11
2012-9-4,92,81,79,78,75,73,92,82,62,29.68,29.53,11,4,11,0.23
2012-9-5,96,82,76,79,75,73,97,83,51,29.57,29.47,11,4,11,0.22
2012-9-6,84,77,73,76,75,71,97,94,70,29.65,29.50,10,2,10,0.01
2012-9-7,94,80,73,76,72,70,95,79,53,29.69,29.53,11,3,11,0.01
2012-9-8,93,75,66,75,71,65,99,88,52,29.57,29.26,19,4,19,0.33
2012-9-9,90,74,64,66,60,50,99,66,28,29.75,29.52,13,4,13,0.01
2012-9-10,83,70,58,59,55,49,93,61,33,29.96,29.75,16,5,16,0.00
2012-9-11,88,66,54,58,52,44,99,69,24,30.14,29.95,8,2,8,0.00
2012-9-12,86,67,56,64,56,48,99,74,32,30.17,30.00,11,1,11,0.00
2012-9-13,87,67,59,65,58,47,97,78,27,30.16,29.97,12,2,12,0.00
2012-9-14,87,71,60,70,63,58,94,80,44,30.01,29.81,12,2,12,0.00
2012-9-15,85,70,56,67,57,51,93,65,34,29.91,29.77,21,5,21,0.00
2012-9-16,86,66,56,57,55,50,95,73,33,29.95,29.77,9,2,9,0.00
2012-9-17,77,65,58,66,60,56,92,85,57,29.93,29.65,11,2,11,0.00
2012-9-18,79,47,0,73,68,65,84,55,77,30.28,29.23,20,2,20,0.00
2012-9-19,78,57,0,72,55,46,93,52,35,30.78,30.28,14,3,14,0.04
2012-9-20,79,61,52,57,53,50,98,80,39,30.85,30.67,11,2,12,0.00
2012-9-21,82,66,58,64,59,56,95,82,49,30.74,30.48,11,2,12,0.00
2012-9-22,90,72,65,69,65,63,97,80,43,30.48,30.15,16,2,16,0.22
2012-9-23,74,63,50,66,50,41,98,66,35,30.90,30.39,12,3,12,0.02
2012-9-24,79,60,50,52,47,34,94,69,23,31.02,30.80,12,3,12,0.00
2012-9-25,82,64,52,61,52,46,93,71,33,31.02,30.69,119,4,119,0.00
2012-9-26,89,72,62,69,63,57,93,76,42,30.77,30.51,14,3,14,0.05
2012-9-27,84,74,71,68,67,64,89,81,53,30.72,30.52,12,3,12,0.05
2012-9-28,88,72,64,70,65,54,86,77,51,30.76,30.41,7,3,8,0.01
2012-9-29,74,63,54,56,53,50,97,71,48,30.67,30.50,11,4,11,0.00
2012-9-30,79,61,54,56,53,47,97,79,34,30.63,30.46,18,3,18,0.05
2012-10-1,76,62,56,58,55,47,97,82,38,30.78,30.57,10,3,10,0.01
2012-10-2,63,63,60,60,60,58,95,89,84,30.66,30.48,4,2,4,0.00
2012-10-3,88,69,63,74,65,60,97,87,57,30.60,30.46,6,2,6,0.01
2012-10-4,85,73,65,74,69,64,99,88,59,30.66,30.47,9,2,9,0.01
2012-10-5,90,71,65,65,63,55,99,79,32,30.68,30.50,10,2,10,0.01
2012-10-6,86,67,50,65,57,46,94,73,45,30.73,30.35,16,4,16,0.00
2012-10-7,56,53,50,51,47,42,97,82,64,31.09,30.73,14,4,107,0.04
2012-10-8,58,52,47,49,46,40,93,82,57,31.30,31.04,15,5,15,0.02
2012-10-9,61,55,51,55,51,47,86,85,78,31.06,30.84,11,5,11,0.01
2012-10-10,75,61,54,54,52,44,85,73,35,30.85,30.51,21,4,21,0.01
2012-10-11,71,54,42,46,39,29,99,62,22,31.13,30.81,12,4,12,0.00
2012-10-12,71,54,44,51,42,33,98,68,34,31.24,30.92,33,7,33,0.00
2012-10-13,62,49,42,46,35,24,91,61,24,31.45,31.13,17,4,17,0.00
2012-10-14,80,62,50,59,52,45,95,72,35,31.15,30.62,17,5,17,0.00
2012-10-15,68,65,64,62,61,58,90,87,80,30.62,30.29,15,5,15,0.00
2012-10-16,68,60,45,62,53,42,97,78,46,30.68,30.44,12,3,14,0.01
2012-10-17,70,52,45,54,47,44,96,87,48,30.89,27.65,9,2,9,0.01
2012-10-18,74,61,52,60,54,51,96,81,51,30.73,30.48,14,3,14,0.00
2012-10-19,79,68,64,68,62,59,85,82,64,30.48,30.11,15,4,15,0.02
2012-10-20,73,0,0,67,67,67,80,0,80,30.64,30.25,4,0,6,0.02
2012-10-21,64,21,0,67,58,41,89,28,44,30.93,29.94,9,1,10,0.02
2012-10-22,79,54,43,51,44,39,98,75,26,30.22,29.91,11,2,11,0.00
2012-10-23,72,58,51,58,53,50,95,86,57,30.08,29.83,8,1,8,0.00
2012-10-24,81,64,59,65,58,57,93,85,49,29.94,29.74,8,2,8,0.00
2012-10-25,64,64,51,61,61,50,95,89,89,29.95,29.85,0,0,0,0.00
2012-10-26,68,67,67,64,63,63,88,88,84,29.91,29.82,3,2,3,0.00
2012-10-27,67,38,0,63,59,56,88,50,80,29.89,29.73,14,5,14,0.00
2012-10-28,62,60,56,57,54,47,83,81,71,29.92,29.70,23,9,23,0.00
2012-10-29,55,55,55,51,51,51,84,84,84,29.90,29.70,13,13,13,0.02
2012-11-3,52,48,43,36,34,32,71,59,47,31.13,30.90,15,5,15,0.04
2012-11-4,54,43,34,37,33,30,88,70,49,31.13,30.94,15,4,15,0.00
2012-11-5,54,43,38,35,31,28,79,63,37,31.18,31.01,20,7,20,0.00
2012-11-6,46,40,36,35,30,26,80,67,48,31.22,30.92,23,8,23,0.00
2012-11-7,43,41,39,38,33,29,94,75,64,30.97,30.74,21,10,21,0.07
2012-11-8,60,46,38,37,24,15,94,43,22,31.02,30.76,15,4,15,0.04
2012-11-9,65,47,35,40,34,29,99,65,31,31.25,31.01,11,3,11,0.00
2012-11-10,64,45,36,49,40,34,99,85,44,31.38,31.20,9,2,9,0.00
2012-11-11,70,51,41,53,45,41,99,83,46,31.49,31.24,13,3,13,0.00
2012-11-12,72,54,0,61,57,52,97,73,64,31.37,29.74,21,6,21,0.00
2012-11-13,61,47,42,60,41,33,99,81,56,32.86,29.75,17,7,17,0.40
2012-11-14,54,43,34,38,32,28,96,66,40,30.40,30.13,16,7,16,0.00
2012-11-15,48,43,36,41,36,34,98,77,64,30.24,30.03,14,5,14,0.00
2012-11-16,57,44,36,39,34,31,91,68,41,30.26,30.05,17,4,17,0.00
2012-11-17,55,45,39,44,34,27,99,69,36,30.48,30.26,18,6,18,0.00
2012-11-18,52,47,40,44,41,38,99,82,69,30.51,30.27,17,8,17,0.00
2012-11-19,56,49,45,46,42,39,84,77,59,30.29,29.98,13,6,13,0.00
2012-11-20,54,47,39,45,43,39,99,87,67,30.01,29.77,11,3,11,0.00
2012-11-21,64,44,35,43,36,33,99,79,42,30.03,29.85,8,2,8,0.00
2012-11-22,61,42,31,42,35,30,99,78,42,30.14,29.88,7,2,7,0.00
2012-11-23,66,47,31,46,37,29,99,72,28,29.99,29.51,23,4,23,0.00
2012-11-24,49,41,36,31,24,20,58,51,38,29.95,29.60,22,7,22,0.00
2012-11-25,43,36,27,25,21,18,82,55,40,30.02,29.86,14,4,14,0.00
2012-11-26,63,42,27,37,30,22,95,66,26,30.10,29.92,10,2,10,0.00
2012-11-27,44,41,38,42,40,37,99,95,83,30.12,29.99,20,7,20,0.15
2012-11-28,54,41,31,37,29,22,94,65,33,30.22,30.08,13,4,13,0.00
2012-11-29,58,40,29,30,26,20,86,60,26,30.36,30.10,14,4,14,0.00
2012-11-30,53,39,28,43,35,27,99,86,56,30.99,30.15,8,2,8,0.00
2012-12-1,58,43,37,47,41,36,99,93,63,30.35,30.11,12,3,12,0.00
2012-12-2,58,46,37,49,44,37,99,94,67,30.28,29.85,8,2,8,0.00
2012-12-3,73,55,43,56,50,42,99,85,53,30.04,29.87,8,2,8,0.00
2012-12-4,71,57,47,57,51,46,99,82,58,30.02,29.68,16,3,16,0.00
2012-12-5,68,55,40,51,38,26,71,54,29,30.03,29.65,22,6,22,0.00
2012-12-6,44,37,30,29,25,22,94,64,51,30.23,30.01,20,6,20,0.00
2012-12-7,50,43,31,47,41,29,99,93,80,30.09,29.80,7,1,7,0.24
2012-12-8,54,50,46,53,49,45,99,98,96,29.83,29.71,7,2,7,0.01
2012-12-9,50,47,45,49,47,1,99,99,15,29.99,29.75,21,6,21,0.14
2012-12-10,63,52,45,60,51,44,99,96,86,29.75,29.34,14,2,14,0.01
2012-12-11,61,48,43,59,39,30,99,72,48,30.06,29.37,16,4,16,0.08
2012-12-12,51,42,34,34,30,27,82,64,44,30.29,30.06,12,5,12,0.00
2012-12-13,49,40,29,30,26,22,85,61,35,30.36,30.16,14,5,14,0.00
2012-12-14,61,40,27,33,27,22,90,64,26,30.15,29.89,8,2,8,0.00
2012-12-15,53,42,33,42,35,27,99,78,54,30.14,29.84,12,3,12,0.00
2012-12-16,53,48,44,49,45,41,99,90,70,29.98,29.47,8,2,8,0.14
2012-12-17,52,48,47,52,48,47,99,99,98,29.59,29.26,14,4,14,0.06
2012-12-18,63,51,41,55,42,30,99,75,44,29.58,29.26,23,6,24,0.01
2012-12-19,59,46,36,38,34,28,85,64,45,29.85,29.56,14,4,14,0.00
2012-12-20,51,43,36,51,35,30,99,74,54,30.05,29.15,17,5,17,0.45
2012-12-21,58,45,38,58,33,22,99,65,46,29.36,28.96,27,12,27,0.53
2012-12-22,48,40,34,26,22,18,59,48,35,29.87,29.34,30,10,30,0.00
2012-12-23,50,36,28,31,22,14,82,58,24,30.68,29.51,14,3,14,1.19
2012-12-24,41,36,30,37,29,22,99,78,56,29.98,29.54,14,4,14,0.13
2012-12-25,52,40,33,42,36,29,99,84,60,30.11,29.56,14,4,14,0.01
2012-12-26,50,38,33,48,34,26,99,86,67,30.14,29.07,39,14,42,0.83
2012-12-27,47,39,37,43,30,24,99,72,45,29.86,29.10,21,8,21,0.05
2012-12-28,47,38,33,30,27,24,75,64,47,30.01,29.85,13,3,13,0.00
2012-12-29,39,37,33,37,31,27,95,80,66,29.89,29.24,14,3,14,0.19
2012-12-30,45,38,32,29,22,16,68,52,34,32.91,29.64,24,7,24,0.00
2012-12-31,46,37,28,29,22,17,67,56,35,30.22,29.82,11,3,11,0.00
2013-1-1,47,42,38,31,28,23,69,57,50,29.87,29.65,15,3,15,0.00